Waterford, MI

10:53 PM EST on December 09, 2016 (GMT -0500)
Oakland County International

Weather History for KPTK - March, 2013

Change the Weather History Date:

Monday, March 18, 2013

  Actual Average Record
Temperature  
Mean Temperature 26 °F -  
Max Temperature 34 °F 40 °F 73 °F (2012)
Min Temperature 19 °F 24 °F 19 °F (2006)
Degree Days  
Heating Degree Days 38    
Moisture  
Dew Point 26 °F    
Average Humidity 87    
Maximum Humidity 100    
Minimum Humidity 71    
Precipitation  
Precipitation 0.03 in - - ()
Sea Level Pressure  
Sea Level Pressure 29.72 in    
Wind  
Wind Speed 12 mph (ESE)    
Max Wind Speed 21 mph    
Max Gust Speed 31 mph    
Visibility 6 miles    
Events Rain , Snow    
Averages and records for this station are not official NWS values.
T = Trace of Precipitation, MM = Missing Value Source: NWS Daily Summary

Daily Weather History Graph

Daily Weather History Graph

Search for Another Location

Airport or City:

Trip Planner

Search our weather history database for the weather conditions in past years. The results will help you decide how hot, cold, wet, or windy it might be!

Date:

Astronomy

Mar. 18, 2013 Rise Set
Actual Time 7:40 AM EDT 7:43 PM EDT
Civil Twilight 7:11 AM EDT 8:12 PM EDT
Nautical Twilight 6:39 AM EDT 8:45 PM EDT
Astronomical Twilight 6:05 AM EDT 9:18 PM EDT
Moon 11:31 AM EDT (3/18) 1:49 AM EDT (3/18)
Length of Visible Light 13h 00m
Length of Day
12h 03m
Waxing Crescent, 40% of the Moon is Illuminated
Mar 18
Waxing Crescent
Mar 19
First Quarter
Mar 27
Full
Apr 3
Last Quarter
Apr 10
New

Hourly Weather History & Observations

Time (EDT) Temp. Windchill Dew Point Humidity Pressure Visibility Wind Dir Wind Speed Gust Speed Precip Events Conditions
12:53 AM 19.9 °F 9.3 °F 12.9 °F 74% 30.18 in 10.0 mi East 9.2 mph - N/A   Clear
1:53 AM 19.9 °F 11.1 °F 12.0 °F 71% 30.16 in 10.0 mi East 6.9 mph - N/A   Clear
2:53 AM 21.0 °F 10.6 °F 12.9 °F 71% 30.15 in 10.0 mi East 9.2 mph - N/A   Clear
3:53 AM 21.9 °F 12.5 °F 14.0 °F 72% 30.11 in 10.0 mi East 8.1 mph - N/A   Clear
4:53 AM 21.9 °F 12.5 °F 16.0 °F 78% 30.07 in 10.0 mi East 8.1 mph - N/A   Clear
5:53 AM 23.0 °F 12.4 °F 18.0 °F 81% 30.03 in 10.0 mi East 10.4 mph - N/A   Mostly Cloudy
6:53 AM 24.1 °F 13.1 °F 19.0 °F 81% 30.00 in 10.0 mi East 11.5 mph - N/A   Overcast
7:53 AM 25.0 °F 14.8 °F 19.0 °F 78% 29.98 in 10.0 mi East 10.4 mph - N/A   Overcast
8:53 AM 25.0 °F 13.1 °F 19.0 °F 78% 29.96 in 10.0 mi East 13.8 mph - N/A   Overcast
9:20 AM 26.6 °F 16.2 °F 19.4 °F 74% 29.90 in 10.0 mi East 11.5 mph 21.9 mph N/A   Overcast
9:53 AM 27.0 °F 14.7 °F 19.0 °F 72% 29.91 in 10.0 mi East 16.1 mph 23.0 mph N/A   Overcast
10:53 AM 28.0 °F 18.1 °F 21.0 °F 75% 29.86 in 7.0 mi East 11.5 mph 25.3 mph 0.00 in Snow Light Snow
11:53 AM 30.0 °F 20.0 °F 25.0 °F 82% 29.81 in 2.5 mi East 12.7 mph 24.2 mph 0.00 in Snow Light Snow
12:18 PM 30.2 °F 17.4 °F 24.8 °F 80% 29.76 in 4.0 mi ESE 20.7 mph 31.1 mph 0.00 in Snow Light Snow
12:53 PM 30.0 °F 19.1 °F 25.0 °F 82% 29.80 in 7.0 mi ESE 15.0 mph 27.6 mph 0.00 in Snow Light Snow
1:00 PM 30.2 °F 18.5 °F 24.8 °F 80% 29.76 in 6.0 mi ESE 17.3 mph 24.2 mph 0.00 in Snow Light Freezing Drizzle
1:15 PM 30.2 °F 17.8 °F 26.6 °F 86% 29.74 in 2.0 mi ESE 19.6 mph 27.6 mph 0.00 in Snow Light Freezing Drizzle
1:35 PM 30.2 °F 19.8 °F 26.6 °F 86% 29.73 in 2.0 mi East 13.8 mph 24.2 mph 0.00 in Snow Light Freezing Drizzle
1:53 PM 30.0 °F 18.7 °F 28.0 °F 92% 29.76 in 2.0 mi ESE 16.1 mph 27.6 mph 0.00 in Snow Light Freezing Drizzle
2:27 PM 30.2 °F 17.8 °F 28.4 °F 93% 29.69 in 1.8 mi ESE 19.6 mph 31.1 mph 0.00 in   Overcast
2:39 PM 30.2 °F 19.3 °F 28.4 °F 93% 29.67 in 2.0 mi ESE 15.0 mph 27.6 mph 0.00 in   Overcast
2:53 PM 30.9 °F 19.1 °F 28.9 °F 92% 29.69 in 2.0 mi ESE 18.4 mph 23.0 mph 0.00 in   Overcast
3:48 PM 30.2 °F 18.9 °F 30.2 °F 100% 29.61 in 1.5 mi ESE 16.1 mph 23.0 mph 0.00 in Rain Light Freezing Rain
3:53 PM 30.9 °F 20.2 °F 30.0 °F 96% 29.64 in 1.5 mi ESE 15.0 mph 21.9 mph 0.00 in Rain Light Freezing Rain
4:02 PM 32.0 °F 20.8 °F 30.2 °F 93% 29.58 in 2.0 mi East 17.3 mph 21.9 mph 0.00 in Rain Light Freezing Rain
4:11 PM 32.0 °F 23.0 °F 30.2 °F 93% 29.58 in 1.5 mi East 11.5 mph 27.6 mph 0.00 in Rain Light Freezing Rain
4:22 PM 32.0 °F 22.1 °F 30.2 °F 93% 29.58 in 2.5 mi ESE 13.8 mph 24.2 mph 0.00 in Rain Light Freezing Rain
4:40 PM 32.0 °F 22.5 °F 30.2 °F 93% 29.60 in 4.0 mi ESE 12.7 mph 25.3 mph 0.00 in Rain Rain
4:53 PM 32.0 °F 22.1 °F 30.0 °F 92% 29.62 in 3.0 mi ESE 13.8 mph 25.3 mph 0.00 in Rain Rain
5:01 PM 32.0 °F 21.6 °F 30.2 °F 93% 29.58 in 2.5 mi ESE 15.0 mph 21.9 mph 0.00 in Rain Rain
5:53 PM 32.0 °F 21.2 °F 30.9 °F 96% 29.57 in 2.5 mi ESE 16.1 mph 24.2 mph 0.01 in Rain Rain
6:02 PM 32.0 °F 22.5 °F 30.2 °F 93% 29.54 in 2.5 mi ESE 12.7 mph 24.2 mph 0.00 in Rain Light Freezing Rain
6:22 PM 32.0 °F 22.5 °F 30.2 °F 93% 29.54 in 1.8 mi ESE 12.7 mph 20.7 mph 0.00 in Rain Light Freezing Rain
6:53 PM 32.0 °F 22.5 °F 30.9 °F 96% 29.57 in 1.8 mi SE 12.7 mph - 0.00 in Rain Light Freezing Rain
7:21 PM 32.0 °F 24.8 °F 30.2 °F 93% 29.53 in 2.0 mi SE 8.1 mph - 0.00 in Rain Light Freezing Rain
7:29 PM 33.8 °F 27.7 °F 32.0 °F 93% 29.54 in 1.8 mi SE 6.9 mph - 0.00 in   Light Freezing Drizzle
7:41 PM 33.8 °F 30.8 °F 32.0 °F 93% 29.54 in 3.0 mi South 3.5 mph - 0.01 in   Light Freezing Drizzle
7:49 PM 33.8 °F 30.8 °F 30.2 °F 87% 29.54 in 4.0 mi SSE 3.5 mph - 0.01 in   Drizzle
7:53 PM 33.1 °F 30.0 °F 30.9 °F 92% 29.57 in 5.0 mi SSE 3.5 mph - 0.01 in   Drizzle
8:53 PM 33.1 °F 30.0 °F 32.0 °F 96% 29.57 in 4.0 mi SSW 3.5 mph - 0.01 in   Drizzle
9:53 PM 34.0 °F 25.0 °F 32.0 °F 92% 29.58 in 8.0 mi WSW 12.7 mph - 0.00 in   Overcast
10:00 PM 33.8 °F 24.8 °F 32.0 °F 93% 29.55 in 10.0 mi WSW 12.7 mph - N/A   Overcast
10:24 PM 33.8 °F 24.3 °F 32.0 °F 93% 29.56 in 10.0 mi WSW 13.8 mph 20.7 mph N/A   Overcast
10:41 PM 33.8 °F 24.8 °F 30.2 °F 87% 29.57 in 10.0 mi WSW 12.7 mph 21.9 mph N/A   Overcast
10:53 PM 34.0 °F 26.0 °F 30.9 °F 89% 29.60 in 10.0 mi WSW 10.4 mph 21.9 mph N/A   Overcast
11:33 PM 33.8 °F 23.9 °F 30.2 °F 87% 29.57 in 10.0 mi WSW 15.0 mph 23.0 mph N/A   Overcast
11:46 PM 33.8 °F 23.2 °F 30.2 °F 87% 29.58 in 10.0 mi WSW 17.3 mph 23.0 mph N/A   Overcast
11:53 PM 34.0 °F 23.4 °F 30.0 °F 85% 29.61 in 10.0 mi West 17.3 mph 23.0 mph N/A   Overcast